Regional Weather Roundup
Issued by NWS

Home | Current Version | Previous Version | Text Only | Print | Product List | Glossary Off
Versions: 1 2 3 4 5 6 7 8 9 10 11 12 13 14 15 16 17 18 19 20 21 22 23 24 25 26 27 28 29 30 31 32 33 34 35 36 37 38 39 40 41 42 43 44 45 46 47 48 49 50

000
ASUS43 KOAX 200702
RWRNE

WEATHER ROUNDUP FOR NEBRASKA
NATIONAL WEATHER SERVICE OMAHA NE
100 AM CST SAT DEC 20 2014

NOTES: SATELLITE DATA IS BEING USED TO AUGMENT CLOUD COVER ABOVE
       12000 FEET.
       "FAIR" INDICATES FEW OR NO CLOUDS BELOW 12,000 FEET WITH NO
       SIGNIFICANT WEATHER AND/OR OBSTRUCTIONS TO VISIBILITY.

  * THESE STATIONS DO NOT REPORT WEATHER SUCH AS RAIN...SNOW OR FOG.

NEZ001>004-019>022-054>056-200800-
NEBRASKA PANHANDLE

CITY           SKY/WX    TMP DP  RH WIND       PRES   REMARKS
SCOTTSBLUFF    PTCLDY    14  10  84 E5        29.98F WCI   6
ALLIANCE       PTCLDY    13  11  92 CALM      29.97F
CHADRON        CLEAR     14  10  84 W3        29.96S
SIDNEY         PTCLDY    18  13  80 SW9       30.00F WCI   7
$$

NEZ057>060-069>072-079>082-200800-
SOUTHWEST NEBRASKA

CITY           SKY/WX    TMP DP  RH WIND       PRES   REMARKS
NORTH PLATTE   CLEAR     18  16  92 NW6       30.02F FOG     WCI  10
IMPERIAL       CLEAR     26  19  74 W8        30.02F WCI  18
MCCOOK         CLEAR     26  23  88 W9        30.04S WCI  17
$$

NEZ005>010-023>029-035>040-094-200800-
NORTH CENTRAL NEBRASKA

CITY           SKY/WX    TMP DP  RH WIND       PRES   REMARKS
VALENTINE      MOCLDY    17  15  92 W6        29.98S WCI   9
AINSWORTH      CLEAR     22  18  87 W7        29.97S WCI  13
BROKEN BOW     CLEAR     25  21  85 N5        30.00S WCI  19
$$

NEZ041-046>049-061>064-073>077-083>087-200800-
SOUTH CENTRAL NEBRASKA

CITY           SKY/WX    TMP DP  RH WIND       PRES   REMARKS
GRAND ISLAND   FOG       31  31 100 SW5       30.04F VSB 1/2 WCI  26
AURORA         FOG       32  32 100 S5        30.04F VSB 1/2 WCI  27
HASTINGS       FOG       30  29  96 SW6       30.03S VSB 1/4 WCI  24
KEARNEY *      PTCLDY    23  21  93 SW5       30.02F WCI  17
$$

NEZ011>018-030>034-042>045-200800-
NORTHEAST NEBRASKA

CITY           SKY/WX    TMP DP  RH WIND       PRES   REMARKS
NORFOLK        CLOUDY    33  32  96 S6        30.05S FOG     WCI  28
ALBION         CLOUDY    33  32  95 S3        30.04S FOG
BLAIR          CLOUDY    32  30  93 S9        30.10F FOG     WCI  24
COLUMBUS *     CLOUDY    34  28  80 S8        30.08F WCI  27
TEKAMAH        CLOUDY    32  30  92 SE12      30.12S FOG     WCI  23
$$

NEZ050>053-065>068-078-088>093-200800-
SOUTHEAST NEBRASKA

CITY           SKY/WX    TMP DP  RH WIND       PRES   REMARKS
LINCOLN        CLOUDY    33  31  92 S7        30.11F FOG     WCI  27
OMAHA EPPLEY   FRZ DRZL  31  30  96 SE10      30.14S FOG     WCI  22
BEATRICE       CLOUDY    33  31  94 S10       30.09F WCI  24
FALLS CITY     CLOUDY    31  28  89 SE7       30.16F WCI  24
NEBRASKA CITY  CLOUDY    30  30 100 SE9       30.13F FOG     WCI  22
$$

NEZ044-045-051>053-067-200800-
OMAHA AREA

CITY           SKY/WX    TMP DP  RH WIND       PRES   REMARKS
OMAHA EPPLEY   FRZ DRZL  31  30  96 SE10      30.14S FOG     WCI  22
BLAIR          CLOUDY    32  30  93 S9        30.10F FOG     WCI  24
OFFUTT AFB     CLOUDY    31  29  93 SE8       30.13S FOG     WCI  23
WAHOO          CLOUDY    32  30  93 S9        30.10F FOG     WCI  24
$$


USA.gov is the U.S. government's official web portal to all federal, state and local government web resources and services.